Year,Month,Day,Hour,Minute,Value (Times are PST for windspeed in km/hr)
2007,08,06,00,00,0.70
2007,08,06,00,01,1.20
2007,08,06,00,02,1.60
2007,08,06,00,03,1.40
2007,08,06,00,04,0.90
2007,08,06,00,05,0.10
2007,08,06,00,06,0.90
2007,08,06,00,07,2.00
2007,08,06,00,08,0.30
2007,08,06,00,09,0.60
2007,08,06,00,10,0.40
2007,08,06,00,11,0.20
2007,08,06,00,12,1.00
2007,08,06,00,13,3.70
2007,08,06,00,14,0.30
2007,08,06,00,15,0.10
2007,08,06,00,16,0.20
2007,08,06,00,17,0.70
2007,08,06,00,18,2.80
2007,08,06,00,19,1.00
2007,08,06,00,20,1.90
2007,08,06,00,21,0.70
2007,08,06,00,22,0.50
2007,08,06,00,23,2.10
2007,08,06,00,24,0.50
2007,08,06,00,25,1.90
2007,08,06,00,26,2.80
2007,08,06,00,27,0.40
2007,08,06,00,28,1.60
2007,08,06,00,29,0.90
2007,08,06,00,30,0.90
2007,08,06,00,31,1.40
2007,08,06,00,32,1.50
2007,08,06,00,33,1.80
2007,08,06,00,34,1.90
2007,08,06,00,35,2.00
2007,08,06,00,36,4.50
2007,08,06,00,37,0.80
2007,08,06,00,38,0.90
2007,08,06,00,39,0.20
2007,08,06,00,40,0.30
2007,08,06,00,41,0.00
2007,08,06,00,42,0.00
2007,08,06,00,43,0.10
2007,08,06,00,44,1.40
2007,08,06,00,45,1.10
2007,08,06,00,46,0.90
2007,08,06,00,47,0.40
2007,08,06,00,48,0.20
2007,08,06,00,49,0.00
2007,08,06,00,50,0.50
2007,08,06,00,51,0.70
2007,08,06,00,52,0.90
2007,08,06,00,53,1.10
2007,08,06,00,54,0.80
2007,08,06,00,55,0.30
2007,08,06,00,56,2.70
2007,08,06,00,57,0.60
2007,08,06,00,58,0.20
2007,08,06,00,59,1.00
2007,08,06,01,00,1.10
2007,08,06,01,01,0.50
2007,08,06,01,02,0.90
2007,08,06,01,03,0.50
2007,08,06,01,04,0.00
2007,08,06,01,05,0.60
2007,08,06,01,06,0.60
2007,08,06,01,07,0.20
2007,08,06,01,08,0.00
2007,08,06,01,09,2.30
2007,08,06,01,10,0.60
2007,08,06,01,11,1.20
2007,08,06,01,12,2.10
2007,08,06,01,13,1.80
2007,08,06,01,14,1.50
2007,08,06,01,15,1.50
2007,08,06,01,16,5.10
2007,08,06,01,17,2.70
2007,08,06,01,18,0.10
2007,08,06,01,19,1.70
2007,08,06,01,20,0.00
2007,08,06,01,21,0.20
2007,08,06,01,22,0.80
2007,08,06,01,23,0.20
2007,08,06,01,24,0.00
2007,08,06,01,25,0.70
2007,08,06,01,26,0.10
2007,08,06,01,27,0.00
2007,08,06,01,28,1.10
2007,08,06,01,29,1.20
2007,08,06,01,30,0.00
2007,08,06,01,31,1.70
2007,08,06,01,32,2.30
2007,08,06,01,33,1.60
2007,08,06,01,34,2.30
2007,08,06,01,35,0.90
2007,08,06,01,36,0.10
2007,08,06,01,37,0.00
2007,08,06,01,38,0.80
2007,08,06,01,39,1.40
2007,08,06,01,40,0.00
2007,08,06,01,41,0.20
2007,08,06,01,42,0.10
2007,08,06,01,43,0.30
2007,08,06,01,44,0.00
2007,08,06,01,45,0.00
2007,08,06,01,46,0.00
2007,08,06,01,47,0.00
2007,08,06,01,48,0.10
2007,08,06,01,49,0.10
2007,08,06,01,50,0.00
2007,08,06,01,51,0.10
2007,08,06,01,52,0.00
2007,08,06,01,53,0.00
2007,08,06,01,54,0.00
2007,08,06,01,55,0.10
2007,08,06,01,56,0.00
2007,08,06,01,57,0.70
2007,08,06,01,58,0.00
2007,08,06,01,59,0.00
2007,08,06,02,00,0.00
2007,08,06,02,01,0.00
2007,08,06,02,02,0.00
2007,08,06,02,03,0.00
2007,08,06,02,04,0.00
2007,08,06,02,05,0.00
2007,08,06,02,06,0.00
2007,08,06,02,07,0.10
2007,08,06,02,08,0.10
2007,08,06,02,09,0.40
2007,08,06,02,10,1.10
2007,08,06,02,11,1.80
2007,08,06,02,12,0.40
2007,08,06,02,13,0.00
2007,08,06,02,14,0.50
2007,08,06,02,15,0.20
2007,08,06,02,16,0.20
2007,08,06,02,17,0.40
2007,08,06,02,18,0.60
2007,08,06,02,19,0.10
2007,08,06,02,20,0.00
2007,08,06,02,21,0.00
2007,08,06,02,22,0.00
2007,08,06,02,23,0.00
2007,08,06,02,24,0.20
2007,08,06,02,25,0.00
2007,08,06,02,26,1.20
2007,08,06,02,27,0.90
2007,08,06,02,28,1.60
2007,08,06,02,29,1.30
2007,08,06,02,30,2.10
2007,08,06,02,31,0.80
2007,08,06,02,32,0.20
2007,08,06,02,33,0.10
2007,08,06,02,34,0.10
2007,08,06,02,35,0.50
2007,08,06,02,36,1.40
2007,08,06,02,37,0.80
2007,08,06,02,38,0.30
2007,08,06,02,39,0.10
2007,08,06,02,40,0.70
2007,08,06,02,41,1.40
2007,08,06,02,42,0.10
2007,08,06,02,43,0.00
2007,08,06,02,44,0.00
2007,08,06,02,45,0.00
2007,08,06,02,46,0.00
2007,08,06,02,47,0.00
2007,08,06,02,48,0.00
2007,08,06,02,49,0.00
2007,08,06,02,50,0.00
2007,08,06,02,51,0.00
2007,08,06,02,52,0.00
2007,08,06,02,53,0.00
2007,08,06,02,54,0.10
2007,08,06,02,55,0.00
2007,08,06,02,56,0.00
2007,08,06,02,57,0.00
2007,08,06,02,58,0.00
2007,08,06,02,59,0.40
2007,08,06,03,00,0.70
2007,08,06,03,01,0.50
2007,08,06,03,02,0.60
2007,08,06,03,03,0.40
2007,08,06,03,04,0.00
2007,08,06,03,05,1.20
2007,08,06,03,06,1.50
2007,08,06,03,07,1.80
2007,08,06,03,08,2.70
2007,08,06,03,09,1.50
2007,08,06,03,10,1.20
2007,08,06,03,11,0.90
2007,08,06,03,12,0.20
2007,08,06,03,13,1.20
2007,08,06,03,14,0.30
2007,08,06,03,15,1.20
2007,08,06,03,16,0.20
2007,08,06,03,17,0.10
2007,08,06,03,18,1.10
2007,08,06,03,19,0.90
2007,08,06,03,20,0.00
2007,08,06,03,21,0.50
2007,08,06,03,22,1.20
2007,08,06,03,23,0.60
2007,08,06,03,24,0.40
2007,08,06,03,25,1.40
2007,08,06,03,26,0.20
2007,08,06,03,27,0.00
2007,08,06,03,28,0.00
2007,08,06,03,29,0.00
2007,08,06,03,30,0.10
2007,08,06,03,31,0.00
2007,08,06,03,32,0.00
2007,08,06,03,33,0.00
2007,08,06,03,34,0.10
2007,08,06,03,35,0.00
2007,08,06,03,36,0.20
2007,08,06,03,37,0.00
2007,08,06,03,38,0.00
2007,08,06,03,39,0.00
2007,08,06,03,40,0.00
2007,08,06,03,41,0.10
2007,08,06,03,42,0.00
2007,08,06,03,43,0.00
2007,08,06,03,44,0.20
2007,08,06,03,45,0.10
2007,08,06,03,46,0.10
2007,08,06,03,47,0.00
2007,08,06,03,48,0.20
2007,08,06,03,49,0.20
2007,08,06,03,50,0.00
2007,08,06,03,51,0.00
2007,08,06,03,52,0.00
2007,08,06,03,53,0.30
2007,08,06,03,54,1.50
2007,08,06,03,55,2.10
2007,08,06,03,56,1.00
2007,08,06,03,57,0.20
2007,08,06,03,58,0.00
2007,08,06,03,59,0.60
2007,08,06,04,00,1.90
2007,08,06,04,01,2.40
2007,08,06,04,02,0.20
2007,08,06,04,03,0.60
2007,08,06,04,04,1.00
2007,08,06,04,05,0.50
2007,08,06,04,06,0.30
2007,08,06,04,07,0.30
2007,08,06,04,08,0.00
2007,08,06,04,09,0.00
2007,08,06,04,10,0.10
2007,08,06,04,11,0.00
2007,08,06,04,12,0.00
2007,08,06,04,13,0.00
2007,08,06,04,14,0.00
2007,08,06,04,15,0.00
2007,08,06,04,16,0.00
2007,08,06,04,17,0.00
2007,08,06,04,18,0.10
2007,08,06,04,19,0.00
2007,08,06,04,20,0.00
2007,08,06,04,21,0.00
2007,08,06,04,22,0.00
2007,08,06,04,23,0.10
2007,08,06,04,24,1.10
2007,08,06,04,25,0.10
2007,08,06,04,26,0.20
2007,08,06,04,27,0.20
2007,08,06,04,28,0.10
2007,08,06,04,29,0.50
2007,08,06,04,30,1.30
2007,08,06,04,31,1.10
2007,08,06,04,32,0.60
2007,08,06,04,33,0.20
2007,08,06,04,34,0.50
2007,08,06,04,35,1.90
2007,08,06,04,36,2.00
2007,08,06,04,37,1.30
2007,08,06,04,38,0.10
2007,08,06,04,39,0.20
2007,08,06,04,40,0.20
2007,08,06,04,41,0.10
2007,08,06,04,42,0.00
2007,08,06,04,43,0.00
2007,08,06,04,44,0.10
2007,08,06,04,45,0.30
2007,08,06,04,46,0.30
2007,08,06,04,47,0.00
2007,08,06,04,48,0.10
2007,08,06,04,49,0.00
2007,08,06,04,50,0.00
2007,08,06,04,51,0.00
2007,08,06,04,52,0.00
2007,08,06,04,53,0.00
2007,08,06,04,54,0.00
2007,08,06,04,55,0.00
2007,08,06,04,56,0.10
2007,08,06,04,57,0.10
2007,08,06,04,58,0.00
2007,08,06,04,59,0.00
2007,08,06,05,00,0.00
2007,08,06,05,01,0.00
2007,08,06,05,02,0.00
2007,08,06,05,03,0.00
2007,08,06,05,04,0.00
2007,08,06,05,05,0.00
2007,08,06,05,06,0.00
2007,08,06,05,07,0.10
2007,08,06,05,08,0.00
2007,08,06,05,09,0.00
2007,08,06,05,10,0.00
2007,08,06,05,11,0.00
2007,08,06,05,12,0.10
2007,08,06,05,13,0.00
2007,08,06,05,14,0.00
2007,08,06,05,15,0.00
2007,08,06,05,16,0.00
2007,08,06,05,17,0.00
2007,08,06,05,18,0.00
2007,08,06,05,19,0.00
2007,08,06,05,20,0.00
2007,08,06,05,21,0.00
2007,08,06,05,22,0.00
2007,08,06,05,23,0.00
2007,08,06,05,24,0.00
2007,08,06,05,25,0.10
2007,08,06,05,26,0.00
2007,08,06,05,27,0.10
2007,08,06,05,28,0.30
2007,08,06,05,29,1.30
2007,08,06,05,30,0.10
2007,08,06,05,31,0.10
2007,08,06,05,32,0.10
2007,08,06,05,33,0.70
2007,08,06,05,34,0.80
2007,08,06,05,35,1.40
2007,08,06,05,36,1.30
2007,08,06,05,37,0.10
2007,08,06,05,38,0.10
2007,08,06,05,39,0.00
2007,08,06,05,40,0.00
2007,08,06,05,41,0.00
2007,08,06,05,42,0.20
2007,08,06,05,43,0.10
2007,08,06,05,44,0.00
2007,08,06,05,45,0.00
2007,08,06,05,46,0.00
2007,08,06,05,47,0.10
2007,08,06,05,48,0.00
2007,08,06,05,49,0.00
2007,08,06,05,50,0.10
2007,08,06,05,51,0.00
2007,08,06,05,52,2.10
2007,08,06,05,53,1.50
2007,08,06,05,54,0.90
2007,08,06,05,55,0.00
2007,08,06,05,56,0.00
2007,08,06,05,57,0.00
2007,08,06,05,58,0.10
2007,08,06,05,59,0.20
2007,08,06,06,00,1.10
2007,08,06,06,01,0.70
2007,08,06,06,02,0.10
2007,08,06,06,03,0.00
2007,08,06,06,04,0.10
2007,08,06,06,05,0.60
2007,08,06,06,06,0.50
2007,08,06,06,07,0.10
2007,08,06,06,08,0.00
2007,08,06,06,09,1.30
2007,08,06,06,10,2.20
2007,08,06,06,11,2.40
2007,08,06,06,12,2.30
2007,08,06,06,13,1.60
2007,08,06,06,14,0.30
2007,08,06,06,15,0.00
2007,08,06,06,16,0.00
2007,08,06,06,17,0.10
2007,08,06,06,18,0.00
2007,08,06,06,19,0.00
2007,08,06,06,20,0.00
2007,08,06,06,21,0.00
2007,08,06,06,22,0.00
2007,08,06,06,23,0.00
2007,08,06,06,24,0.00
2007,08,06,06,25,0.00
2007,08,06,06,26,0.00
2007,08,06,06,27,0.00
2007,08,06,06,28,0.10
2007,08,06,06,29,0.10
2007,08,06,06,30,0.00
2007,08,06,06,31,0.00
2007,08,06,06,32,0.00
2007,08,06,06,33,0.00
2007,08,06,06,34,0.00
2007,08,06,06,35,0.00
2007,08,06,06,36,0.00
2007,08,06,06,37,0.20
2007,08,06,06,38,0.10
2007,08,06,06,39,0.00
2007,08,06,06,40,0.00
2007,08,06,06,41,0.00
2007,08,06,06,42,0.00
2007,08,06,06,43,0.00
2007,08,06,06,44,0.20
2007,08,06,06,45,0.10
2007,08,06,06,46,0.00
2007,08,06,06,47,0.00
2007,08,06,06,48,0.10
2007,08,06,06,49,0.00
2007,08,06,06,50,0.20
2007,08,06,06,51,0.10
2007,08,06,06,52,0.00
2007,08,06,06,53,0.00
2007,08,06,06,54,0.00
2007,08,06,06,55,0.00
2007,08,06,06,56,0.00
2007,08,06,06,57,0.00
2007,08,06,06,58,0.10
2007,08,06,06,59,0.10
2007,08,06,07,00,0.00
2007,08,06,07,01,0.10
2007,08,06,07,02,0.20
2007,08,06,07,03,0.50
2007,08,06,07,04,0.10
2007,08,06,07,05,0.40
2007,08,06,07,06,2.30
2007,08,06,07,07,3.10
2007,08,06,07,08,1.60
2007,08,06,07,09,1.00
2007,08,06,07,10,0.60
2007,08,06,07,11,2.30
2007,08,06,07,12,3.30
2007,08,06,07,13,3.70
2007,08,06,07,14,4.30
2007,08,06,07,15,3.10
2007,08,06,07,16,2.20
2007,08,06,07,17,1.50
2007,08,06,07,18,1.10
2007,08,06,07,19,0.30
2007,08,06,07,20,2.60
2007,08,06,07,21,1.60
2007,08,06,07,22,1.50
2007,08,06,07,23,2.60
2007,08,06,07,24,1.50
2007,08,06,07,25,2.40
2007,08,06,07,26,1.30
2007,08,06,07,27,0.40
2007,08,06,07,28,1.60
2007,08,06,07,29,0.80
2007,08,06,07,30,2.50
2007,08,06,07,31,0.50
2007,08,06,07,32,0.40
2007,08,06,07,33,0.50
2007,08,06,07,34,0.40
2007,08,06,07,35,0.50
2007,08,06,07,36,0.30
2007,08,06,07,37,0.40
2007,08,06,07,38,0.00
2007,08,06,07,39,0.10
2007,08,06,07,40,0.00
2007,08,06,07,41,0.20
2007,08,06,07,42,0.90
2007,08,06,07,43,2.00
2007,08,06,07,44,0.50
2007,08,06,07,45,0.50
2007,08,06,07,46,1.00
2007,08,06,07,47,0.80
2007,08,06,07,48,0.30
2007,08,06,07,49,0.00
2007,08,06,07,50,0.20
2007,08,06,07,51,0.00
2007,08,06,07,52,0.10
2007,08,06,07,53,0.10
2007,08,06,07,54,0.10
2007,08,06,07,55,0.20
2007,08,06,07,56,2.90
2007,08,06,07,57,3.50
2007,08,06,07,58,1.50
2007,08,06,07,59,0.80
2007,08,06,08,00,0.10
2007,08,06,08,01,2.60
2007,08,06,08,02,0.80
2007,08,06,08,03,2.50
2007,08,06,08,04,1.80
2007,08,06,08,05,0.50
2007,08,06,08,06,2.90
2007,08,06,08,07,0.10
2007,08,06,08,08,0.10
2007,08,06,08,09,0.10
2007,08,06,08,10,0.10
2007,08,06,08,11,0.00
2007,08,06,08,12,0.10
2007,08,06,08,13,0.20
2007,08,06,08,14,1.00
2007,08,06,08,15,0.00
2007,08,06,08,16,0.10
2007,08,06,08,17,0.20
2007,08,06,08,18,1.60
2007,08,06,08,19,1.80
2007,08,06,08,20,0.00
2007,08,06,08,21,1.10
2007,08,06,08,22,1.20
2007,08,06,08,23,0.00
2007,08,06,08,24,1.50
2007,08,06,08,25,3.40
2007,08,06,08,26,1.10
2007,08,06,08,27,0.10
2007,08,06,08,28,1.60
2007,08,06,08,29,0.70
2007,08,06,08,30,1.50
2007,08,06,08,31,3.10
2007,08,06,08,32,3.40
2007,08,06,08,33,1.90
2007,08,06,08,34,1.60
2007,08,06,08,35,2.50
2007,08,06,08,36,1.40
2007,08,06,08,37,4.40
2007,08,06,08,38,1.50
2007,08,06,08,39,3.40
2007,08,06,08,40,2.70
2007,08,06,08,41,3.80
2007,08,06,08,42,4.20
2007,08,06,08,43,3.60
2007,08,06,08,44,4.10
2007,08,06,08,45,4.70
2007,08,06,08,46,3.00
2007,08,06,08,47,0.80
2007,08,06,08,48,1.30
2007,08,06,08,49,2.50
2007,08,06,08,50,1.80
2007,08,06,08,51,1.00
2007,08,06,08,52,4.10
2007,08,06,08,53,2.60
2007,08,06,08,54,0.90
2007,08,06,08,55,1.30
2007,08,06,08,56,2.00
2007,08,06,08,57,5.20
2007,08,06,08,58,4.90
2007,08,06,08,59,6.70
2007,08,06,09,00,5.70
2007,08,06,09,01,4.00
2007,08,06,09,02,3.30
2007,08,06,09,03,5.00
2007,08,06,09,04,4.60
2007,08,06,09,05,6.20
2007,08,06,09,06,6.30
2007,08,06,09,07,4.20
2007,08,06,09,08,3.10
2007,08,06,09,09,5.70
2007,08,06,09,10,2.30
2007,08,06,09,11,3.20
2007,08,06,09,12,6.30
2007,08,06,09,13,4.20
2007,08,06,09,14,1.30
2007,08,06,09,15,0.60
2007,08,06,09,16,5.30
2007,08,06,09,17,5.50
2007,08,06,09,18,4.40
2007,08,06,09,19,2.50
2007,08,06,09,20,3.20
2007,08,06,09,21,3.50
2007,08,06,09,22,1.10
2007,08,06,09,23,1.10
2007,08,06,09,24,2.10
2007,08,06,09,25,1.50
2007,08,06,09,26,1.20
2007,08,06,09,27,2.30
2007,08,06,09,28,4.30
2007,08,06,09,29,7.30
2007,08,06,09,30,7.80
2007,08,06,09,31,6.80
2007,08,06,09,32,6.10
2007,08,06,09,33,4.10
2007,08,06,09,34,3.20
2007,08,06,09,35,6.00
2007,08,06,09,36,3.90
2007,08,06,09,37,3.90
2007,08,06,09,38,7.30
2007,08,06,09,39,3.60
2007,08,06,09,40,2.20
2007,08,06,09,41,6.20
2007,08,06,09,42,6.20
2007,08,06,09,43,2.30
2007,08,06,09,44,2.20
2007,08,06,09,45,5.60
2007,08,06,09,46,5.60
2007,08,06,09,47,9.20
2007,08,06,09,48,6.70
2007,08,06,09,49,5.70
2007,08,06,09,50,8.80
2007,08,06,09,51,6.80
2007,08,06,09,52,7.50
2007,08,06,09,53,6.00
2007,08,06,09,54,7.40
2007,08,06,09,55,3.20
2007,08,06,09,56,8.30
2007,08,06,09,57,5.10
2007,08,06,09,58,1.60
2007,08,06,09,59,1.30
2007,08,06,10,00,3.90
2007,08,06,10,01,1.80
2007,08,06,10,02,9.20
2007,08,06,10,03,5.50
2007,08,06,10,04,9.10
2007,08,06,10,05,5.90
2007,08,06,10,06,8.30
2007,08,06,10,07,8.00
2007,08,06,10,08,6.00
2007,08,06,10,09,7.00
2007,08,06,10,10,4.80
2007,08,06,10,11,5.60
2007,08,06,10,12,11.30
2007,08,06,10,13,6.70
2007,08,06,10,14,8.00
2007,08,06,10,15,7.70
2007,08,06,10,16,7.40
2007,08,06,10,17,9.60
2007,08,06,10,18,9.40
2007,08,06,10,19,8.00
2007,08,06,10,20,6.40
2007,08,06,10,21,5.90
2007,08,06,10,22,5.80
2007,08,06,10,23,8.00
2007,08,06,10,24,11.10
2007,08,06,10,25,10.70
2007,08,06,10,26,16.10
2007,08,06,10,27,14.60
2007,08,06,10,28,12.00
2007,08,06,10,29,13.20
2007,08,06,10,30,10.20
2007,08,06,10,31,13.50
2007,08,06,10,32,8.60
2007,08,06,10,33,5.50
2007,08,06,10,34,5.30
2007,08,06,10,35,9.70
2007,08,06,10,36,6.60
2007,08,06,10,37,7.60
2007,08,06,10,38,11.50
2007,08,06,10,39,10.50
2007,08,06,10,40,3.90
2007,08,06,10,41,9.20
2007,08,06,10,42,3.40
2007,08,06,10,43,8.00
2007,08,06,10,44,4.10
2007,08,06,10,45,9.20
2007,08,06,10,46,11.60
2007,08,06,10,47,8.70
2007,08,06,10,48,9.70
2007,08,06,10,49,7.10
2007,08,06,10,50,10.00
2007,08,06,10,51,6.40
2007,08,06,10,52,8.00
2007,08,06,10,53,6.60
2007,08,06,10,54,11.10
2007,08,06,10,55,4.00
2007,08,06,10,56,2.90
2007,08,06,10,57,2.10
2007,08,06,10,58,7.50
2007,08,06,10,59,8.00
2007,08,06,11,00,4.90
2007,08,06,11,01,5.50
2007,08,06,11,02,5.50
2007,08,06,11,03,3.50
2007,08,06,11,04,13.20
2007,08,06,11,05,10.10
2007,08,06,11,06,10.10
2007,08,06,11,07,9.30
2007,08,06,11,08,8.90
2007,08,06,11,09,3.90
2007,08,06,11,10,7.40
2007,08,06,11,11,3.80
2007,08,06,11,12,3.90
2007,08,06,11,13,10.90
2007,08,06,11,14,5.30
2007,08,06,11,15,3.70
2007,08,06,11,16,3.40
2007,08,06,11,17,8.40
2007,08,06,11,18,7.20
2007,08,06,11,19,3.70
2007,08,06,11,20,9.40
2007,08,06,11,21,15.20
2007,08,06,11,22,9.40
2007,08,06,11,23,14.80
2007,08,06,11,24,15.10
2007,08,06,11,25,13.50
2007,08,06,11,26,10.20
2007,08,06,11,27,16.20
2007,08,06,11,28,16.10
2007,08,06,11,29,14.00
2007,08,06,11,30,8.20
2007,08,06,11,31,8.50
2007,08,06,11,32,8.80
2007,08,06,11,33,14.20
2007,08,06,11,34,14.40
2007,08,06,11,35,9.90
2007,08,06,11,36,6.20
2007,08,06,11,37,13.30
2007,08,06,11,38,9.10
2007,08,06,11,39,12.30
2007,08,06,11,40,15.10
2007,08,06,11,41,10.50
2007,08,06,11,42,17.40
2007,08,06,11,43,9.30
2007,08,06,11,44,7.60
2007,08,06,11,45,19.60
2007,08,06,11,46,10.90
2007,08,06,11,47,12.60
2007,08,06,11,48,12.20
2007,08,06,11,49,16.50
2007,08,06,11,50,20.20
2007,08,06,11,51,13.90
2007,08,06,11,52,19.60
2007,08,06,11,53,16.70
2007,08,06,11,54,21.10
2007,08,06,11,55,17.30
2007,08,06,11,56,12.80
2007,08,06,11,57,15.80
2007,08,06,11,58,18.20
2007,08,06,11,59,22.20
2007,08,06,12,00,19.10
2007,08,06,12,01,10.40
2007,08,06,12,02,21.90
2007,08,06,12,03,19.60
2007,08,06,12,04,15.80
2007,08,06,12,05,16.50
2007,08,06,12,06,22.70
2007,08,06,12,07,22.20
2007,08,06,12,08,22.00
2007,08,06,12,09,20.00
2007,08,06,12,10,28.60
2007,08,06,12,11,27.00
2007,08,06,12,12,20.20
2007,08,06,12,13,19.50
2007,08,06,12,14,18.50
2007,08,06,12,15,14.40
2007,08,06,12,16,17.40
2007,08,06,12,17,16.30
2007,08,06,12,18,12.60
2007,08,06,12,19,11.70
2007,08,06,12,20,7.60
2007,08,06,12,21,12.50
2007,08,06,12,22,16.30
2007,08,06,12,23,12.60
2007,08,06,12,24,13.50
2007,08,06,12,25,19.80
2007,08,06,12,26,8.80
2007,08,06,12,27,7.30
2007,08,06,12,28,20.20
2007,08,06,12,29,9.60
2007,08,06,12,30,8.50
2007,08,06,12,31,8.00
2007,08,06,12,32,7.90
2007,08,06,12,33,10.60
2007,08,06,12,34,20.10
2007,08,06,12,35,15.90
2007,08,06,12,36,9.20
2007,08,06,12,37,13.00
2007,08,06,12,38,15.10
2007,08,06,12,39,25.60
2007,08,06,12,40,20.40
2007,08,06,12,41,24.50
2007,08,06,12,42,16.90
2007,08,06,12,43,20.20
2007,08,06,12,44,11.00
2007,08,06,12,45,10.10
2007,08,06,12,46,11.40
2007,08,06,12,47,17.30
2007,08,06,12,48,15.30
2007,08,06,12,49,23.50
2007,08,06,12,50,23.00
2007,08,06,12,51,23.60
2007,08,06,12,52,18.90
2007,08,06,12,53,22.10
2007,08,06,12,54,15.40
2007,08,06,12,55,20.20
2007,08,06,12,56,22.30
2007,08,06,12,57,15.50
2007,08,06,12,58,12.90
2007,08,06,12,59,17.30
2007,08,06,13,00,23.50
2007,08,06,13,01,25.70
2007,08,06,13,02,22.40
2007,08,06,13,03,21.10
2007,08,06,13,04,19.60
2007,08,06,13,05,17.80
2007,08,06,13,06,20.00
2007,08,06,13,07,20.00
2007,08,06,13,08,15.60
2007,08,06,13,09,12.20
2007,08,06,13,10,17.30
2007,08,06,13,11,14.90
2007,08,06,13,12,37.30
2007,08,06,13,13,27.80
2007,08,06,13,14,10.50
2007,08,06,13,15,14.90
2007,08,06,13,16,18.90
2007,08,06,13,17,24.90
2007,08,06,13,18,28.00
2007,08,06,13,19,23.80
2007,08,06,13,20,21.20
2007,08,06,13,21,19.20
2007,08,06,13,22,23.80
2007,08,06,13,23,17.50
2007,08,06,13,24,16.10
2007,08,06,13,25,17.40
2007,08,06,13,26,14.90
2007,08,06,13,27,14.40
2007,08,06,13,28,16.60
2007,08,06,13,29,13.20
2007,08,06,13,30,30.10
2007,08,06,13,31,17.40
2007,08,06,13,32,24.10
2007,08,06,13,33,22.90
2007,08,06,13,34,25.90
2007,08,06,13,35,23.60
2007,08,06,13,36,18.40
2007,08,06,13,37,21.30
2007,08,06,13,38,26.70
2007,08,06,13,39,26.20
2007,08,06,13,40,24.50
2007,08,06,13,41,24.20
2007,08,06,13,42,13.40
2007,08,06,13,43,20.80
2007,08,06,13,44,30.70
2007,08,06,13,45,23.10
2007,08,06,13,46,22.80
2007,08,06,13,47,26.10
2007,08,06,13,48,21.90
2007,08,06,13,49,27.40
2007,08,06,13,50,22.80
2007,08,06,13,51,23.60
2007,08,06,13,52,28.00
2007,08,06,13,53,19.80
2007,08,06,13,54,14.70
2007,08,06,13,55,14.90
2007,08,06,13,56,16.00
2007,08,06,13,57,18.40
2007,08,06,13,58,18.70
2007,08,06,13,59,28.30
2007,08,06,14,00,25.10
2007,08,06,14,01,16.50
2007,08,06,14,02,15.10
2007,08,06,14,03,13.60
2007,08,06,14,04,9.10
2007,08,06,14,05,14.40
2007,08,06,14,06,16.30
2007,08,06,14,07,13.80
2007,08,06,14,08,11.90
2007,08,06,14,09,10.60
2007,08,06,14,10,12.10
2007,08,06,14,11,5.90
2007,08,06,14,12,13.80
2007,08,06,14,13,14.40
2007,08,06,14,14,13.00
2007,08,06,14,15,16.30
2007,08,06,14,16,16.30
2007,08,06,14,17,15.70
2007,08,06,14,18,8.40
2007,08,06,14,19,10.60
2007,08,06,14,20,22.00
2007,08,06,14,21,18.70
2007,08,06,14,22,9.40
2007,08,06,14,23,10.30
2007,08,06,14,24,11.30
2007,08,06,14,25,14.90
2007,08,06,14,26,13.60
2007,08,06,14,27,10.40
2007,08,06,14,28,8.70
2007,08,06,14,29,12.80
2007,08,06,14,30,11.30
2007,08,06,14,31,15.80
2007,08,06,14,32,18.90
2007,08,06,14,33,19.10
2007,08,06,14,34,22.60
2007,08,06,14,35,25.80
2007,08,06,14,36,18.60
2007,08,06,14,37,22.20
2007,08,06,14,38,18.80
2007,08,06,14,39,16.70
2007,08,06,14,40,11.90
2007,08,06,14,41,15.50
2007,08,06,14,42,13.00
2007,08,06,14,43,14.20
2007,08,06,14,44,12.10
2007,08,06,14,45,11.20
2007,08,06,14,46,18.70
2007,08,06,14,47,18.50
2007,08,06,14,48,17.70
2007,08,06,14,49,17.90
2007,08,06,14,50,22.40
2007,08,06,14,51,17.30
2007,08,06,14,52,20.80
2007,08,06,14,53,19.60
2007,08,06,14,54,12.90
2007,08,06,14,55,9.00
2007,08,06,14,56,15.60
2007,08,06,14,57,12.90
2007,08,06,14,58,11.60
2007,08,06,14,59,18.00
2007,08,06,15,00,24.10
2007,08,06,15,01,22.90
2007,08,06,15,02,24.90
2007,08,06,15,03,21.20
2007,08,06,15,04,16.90
2007,08,06,15,05,11.80
2007,08,06,15,06,12.10
2007,08,06,15,07,18.60
2007,08,06,15,08,17.50
2007,08,06,15,09,13.10
2007,08,06,15,10,15.40
2007,08,06,15,11,12.70
2007,08,06,15,12,4.70
2007,08,06,15,13,10.70
2007,08,06,15,14,18.80
2007,08,06,15,15,14.20
2007,08,06,15,16,14.80
2007,08,06,15,17,12.40
2007,08,06,15,18,17.20
2007,08,06,15,19,17.30
2007,08,06,15,20,21.70
2007,08,06,15,21,16.70
2007,08,06,15,22,13.20
2007,08,06,15,23,16.40
2007,08,06,15,24,20.60
2007,08,06,15,25,11.80
2007,08,06,15,26,14.20
2007,08,06,15,27,14.20
2007,08,06,15,28,17.80
2007,08,06,15,29,16.30
2007,08,06,15,30,14.30
2007,08,06,15,31,12.90
2007,08,06,15,32,14.10
2007,08,06,15,33,16.30
2007,08,06,15,34,13.20
2007,08,06,15,35,18.60
2007,08,06,15,36,18.70
2007,08,06,15,37,14.50
2007,08,06,15,38,17.00
2007,08,06,15,39,13.30
2007,08,06,15,40,13.80
2007,08,06,15,41,16.50
2007,08,06,15,42,12.00
2007,08,06,15,43,19.10
2007,08,06,15,44,16.90
2007,08,06,15,45,19.20
2007,08,06,15,46,12.60
2007,08,06,15,47,10.90
2007,08,06,15,48,11.80
2007,08,06,15,49,12.90
2007,08,06,15,50,12.90
2007,08,06,15,51,22.00
2007,08,06,15,52,15.90
2007,08,06,15,53,14.40
2007,08,06,15,54,13.80
2007,08,06,15,55,20.40
2007,08,06,15,56,19.60
2007,08,06,15,57,16.60
2007,08,06,15,58,15.30
2007,08,06,15,59,7.70
2007,08,06,16,00,10.90
2007,08,06,16,01,11.00
2007,08,06,16,02,14.30
2007,08,06,16,03,16.90
2007,08,06,16,04,19.80
2007,08,06,16,05,21.60
2007,08,06,16,06,16.20
2007,08,06,16,07,15.50
2007,08,06,16,08,12.60
2007,08,06,16,09,15.10
2007,08,06,16,10,18.80
2007,08,06,16,11,15.20
2007,08,06,16,12,17.90
2007,08,06,16,13,15.70
2007,08,06,16,14,16.00
2007,08,06,16,15,15.70
2007,08,06,16,16,15.90
2007,08,06,16,17,11.60
2007,08,06,16,18,17.10
2007,08,06,16,19,11.30
2007,08,06,16,20,11.00
2007,08,06,16,21,12.30
2007,08,06,16,22,12.60
2007,08,06,16,23,16.30
2007,08,06,16,24,8.00
2007,08,06,16,25,13.90
2007,08,06,16,26,19.60
2007,08,06,16,27,13.30
2007,08,06,16,28,12.00
2007,08,06,16,29,18.20
2007,08,06,16,30,18.80
2007,08,06,16,31,11.30
2007,08,06,16,32,13.80
2007,08,06,16,33,11.80
2007,08,06,16,34,18.30
2007,08,06,16,35,12.40
2007,08,06,16,36,14.80
2007,08,06,16,37,10.70
2007,08,06,16,38,16.60
2007,08,06,16,39,15.00
2007,08,06,16,40,13.30
2007,08,06,16,41,10.00
2007,08,06,16,42,22.40
2007,08,06,16,43,24.50
2007,08,06,16,44,16.80
2007,08,06,16,45,10.60
2007,08,06,16,46,18.50
2007,08,06,16,47,14.30
2007,08,06,16,48,16.00
2007,08,06,16,49,17.00
2007,08,06,16,50,10.00
2007,08,06,16,51,22.20
2007,08,06,16,52,18.70
2007,08,06,16,53,12.10
2007,08,06,16,54,16.70
2007,08,06,16,55,17.90
2007,08,06,16,56,10.30
2007,08,06,16,57,18.80
2007,08,06,16,58,8.90
2007,08,06,16,59,19.10
2007,08,06,17,00,11.50
2007,08,06,17,01,10.30
2007,08,06,17,02,17.90
2007,08,06,17,03,12.30
2007,08,06,17,04,13.00
2007,08,06,17,05,11.30
2007,08,06,17,06,9.70
2007,08,06,17,07,19.60
2007,08,06,17,08,19.30
2007,08,06,17,09,20.00
2007,08,06,17,10,15.10
2007,08,06,17,11,13.70
2007,08,06,17,12,18.90
2007,08,06,17,13,17.10
2007,08,06,17,14,14.70
2007,08,06,17,15,19.30
2007,08,06,17,16,18.40
2007,08,06,17,17,17.70
2007,08,06,17,18,16.10
2007,08,06,17,19,15.40
2007,08,06,17,20,23.20
2007,08,06,17,21,22.50
2007,08,06,17,22,16.90
2007,08,06,17,23,15.90
2007,08,06,17,24,17.90
2007,08,06,17,25,13.60
2007,08,06,17,26,11.00
2007,08,06,17,27,12.60
2007,08,06,17,28,16.30
2007,08,06,17,29,17.10
2007,08,06,17,30,15.40
2007,08,06,17,31,11.20
2007,08,06,17,32,10.70
2007,08,06,17,33,10.40
2007,08,06,17,34,9.50
2007,08,06,17,35,9.40
2007,08,06,17,36,12.60
2007,08,06,17,37,17.40
2007,08,06,17,38,17.10
2007,08,06,17,39,18.30
2007,08,06,17,40,10.80
2007,08,06,17,41,11.00
2007,08,06,17,42,15.40
2007,08,06,17,43,9.30
2007,08,06,17,44,16.60
2007,08,06,17,45,11.00
2007,08,06,17,46,10.60
2007,08,06,17,47,15.10
2007,08,06,17,48,17.20
2007,08,06,17,49,10.30